owner,sensor,date,latitude,longitude,vertical_datum,direction_of_sea_water_velocity,sea_water_speed,upward_sea_water_velocity,qcFlag 
TABS,ioos:station:wmo:42044:1,2003-01-01T00:00:00Z,26.1914,-97.0507,2.0,336.0377775,4.038031699,-99999.0,'11133222,11111222,99999999' 
TABS,ioos:station:wmo:42044:1,2003-01-01T00:30:00Z,26.1914,-97.0507,2.0,325.4421723,2.379936974,-99999.0,'11133222,11111222,99999999' 
TABS,ioos:station:wmo:42044:1,2003-01-01T01:00:00Z,26.1914,-97.0507,2.0,349.8366841,3.626913288,-99999.0,'11133222,11111222,99999999' 
TABS,ioos:station:wmo:42044:1,2003-01-01T01:30:00Z,26.1914,-97.0507,2.0,355.4532734,5.928659208,-99999.0,'11133222,11111222,99999999' 
TABS,ioos:station:wmo:42044:1,2003-01-01T02:00:00Z,26.1914,-97.0507,2.0,14.68817424,6.822968562,-99999.0,'11133222,11111222,99999999' 
TABS,ioos:station:wmo:42044:1,2003-01-01T02:30:00Z,26.1914,-97.0507,2.0,27.97613704,4.540594675,-99999.0,'11133222,11111222,99999999' 
TABS,ioos:station:wmo:42044:1,2003-01-01T03:00:00Z,26.1914,-97.0507,2.0,46.95164626,4.77574078,-99999.0,'11133222,11111222,99999999' 
TABS,ioos:station:wmo:42044:1,2003-01-01T03:30:00Z,26.1914,-97.0507,2.0,33.6901992,11.93437472,-99999.0,'11111222,11111222,99999999' 
TABS,ioos:station:wmo:42044:1,2003-01-01T04:00:00Z,26.1914,-97.0507,2.0,22.85380013,11.12316951,-99999.0,'11111222,11111222,99999999' 
TABS,ioos:station:wmo:42044:1,2003-01-01T04:30:00Z,26.1914,-97.0507,2.0,15.2646433,10.74922323,-99999.0,'11111222,11111222,99999999' 
TABS,ioos:station:wmo:42044:1,2003-01-01T05:00:00Z,26.1914,-97.0507,2.0,2.329132663,16.73382204,-99999.0,'11111222,11111222,99999999' 
TABS,ioos:station:wmo:42044:1,2003-01-01T05:30:00Z,26.1914,-97.0507,2.0,353.2352729,15.7899335,-99999.0,'11111222,11111222,99999999' 
TABS,ioos:station:wmo:42044:1,2003-01-01T06:00:00Z,26.1914,-97.0507,2.0,355.5909579,16.64927626,-99999.0,'11111222,11111222,99999999' 
TABS,ioos:station:wmo:42044:1,2003-01-01T06:30:00Z,26.1914,-97.0507,2.0,13.25280206,18.97533662,-99999.0,'11111222,11111222,99999999' 
TABS,ioos:station:wmo:42044:1,2003-01-01T07:00:00Z,26.1914,-97.0507,2.0,5.35383445,24.43659755,-99999.0,'11111222,11111222,99999999' 
TABS,ioos:station:wmo:42044:1,2003-01-01T07:30:00Z,26.1914,-97.0507,2.0,3.620845427,25.81151875,-99999.0,'11111222,11111222,99999999' 
TABS,ioos:station:wmo:42044:1,2003-01-01T08:00:00Z,26.1914,-97.0507,2.0,3.78248881,26.37745249,-99999.0,'11111222,11111222,99999999' 
TABS,ioos:station:wmo:42044:1,2003-01-01T08:30:00Z,26.1914,-97.0507,2.0,6.434265982,25.61131391,-99999.0,'11111222,11111222,99999999' 
TABS,ioos:station:wmo:42044:1,2003-01-01T09:00:00Z,26.1914,-97.0507,2.0,2.973934587,21.58907131,-99999.0,'11111222,11111222,99999999' 
TABS,ioos:station:wmo:42044:1,2003-01-01T09:30:00Z,26.1914,-97.0507,2.0,3.004806327,25.75540526,-99999.0,'11111222,11111222,99999999' 
TABS,ioos:station:wmo:42044:1,2003-01-01T10:00:00Z,26.1914,-97.0507,2.0,5.380165965,28.79685573,-99999.0,'11111222,11111222,99999999' 
TABS,ioos:station:wmo:42044:1,2003-01-01T10:30:00Z,26.1914,-97.0507,2.0,3.791608266,28.58255587,-99999.0,'11111222,11111222,99999999' 
TABS,ioos:station:wmo:42044:1,2003-01-01T11:00:00Z,26.1914,-97.0507,2.0,3.463377681,24.00383511,-99999.0,'11111222,11111222,99999999' 
TABS,ioos:station:wmo:42044:1,2003-01-01T11:30:00Z,26.1914,-97.0507,2.0,7.089868251,22.11911843,-99999.0,'11111222,11111222,99999999' 
TABS,ioos:station:wmo:42044:1,2003-01-01T12:00:00Z,26.1914,-97.0507,2.0,2.207997213,25.43888362,-99999.0,'11111222,11111222,99999999' 
TABS,ioos:station:wmo:42044:1,2003-01-01T12:30:00Z,26.1914,-97.0507,2.0,7.859031292,24.79285583,-99999.0,'11111222,11111222,99999999' 
TABS,ioos:station:wmo:42044:1,2003-01-01T13:00:00Z,26.1914,-97.0507,2.0,5.265064777,24.30252868,-99999.0,'11111222,11111222,99999999' 
TABS,ioos:station:wmo:42044:1,2003-01-01T13:30:00Z,26.1914,-97.0507,2.0,1.757549862,29.67395659,-99999.0,'11111222,11111222,99999999' 
TABS,ioos:station:wmo:42044:1,2003-01-01T14:00:00Z,26.1914,-97.0507,2.0,4.64783736,27.89171203,-99999.0,'11111222,11111222,99999999' 
TABS,ioos:station:wmo:42044:1,2003-01-01T14:30:00Z,26.1914,-97.0507,2.0,1.172003441,30.80644251,-99999.0,'11111222,11111222,99999999' 
TABS,ioos:station:wmo:42044:1,2003-01-01T15:00:00Z,26.1914,-97.0507,2.0,3.250042702,30.86964366,-99999.0,'11111222,11111222,99999999' 
TABS,ioos:station:wmo:42044:1,2003-01-01T15:30:00Z,26.1914,-97.0507,2.0,358.2192927,31.8553873,-99999.0,'11111222,11111222,99999999' 
TABS,ioos:station:wmo:42044:1,2003-01-01T16:00:00Z,26.1914,-97.0507,2.0,2.67711002,32.54551428,-99999.0,'11111222,11111222,99999999' 
TABS,ioos:station:wmo:42044:1,2003-01-01T16:30:00Z,26.1914,-97.0507,2.0,357.8530807,31.76229998,-99999.0,'11111222,11111222,99999999' 
TABS,ioos:station:wmo:42044:1,2003-01-01T17:00:00Z,26.1914,-97.0507,2.0,1.669525689,33.9844229,-99999.0,'11111222,11111222,99999999' 
TABS,ioos:station:wmo:42044:1,2003-01-01T17:30:00Z,26.1914,-97.0507,2.0,355.3674977,33.80042899,-99999.0,'11111222,11111222,99999999' 
TABS,ioos:station:wmo:42044:1,2003-01-01T18:00:00Z,26.1914,-97.0507,2.0,358.7281808,38.28943588,-99999.0,'11111222,11111222,99999999' 
TABS,ioos:station:wmo:42044:1,2003-01-01T18:30:00Z,26.1914,-97.0507,2.0,354.9356778,31.15161954,-99999.0,'11111222,11111222,99999999' 
TABS,ioos:station:wmo:42044:1,2003-01-01T19:00:00Z,26.1914,-97.0507,2.0,0.861464403,31.93360769,-99999.0,'11111222,11111222,99999999' 
TABS,ioos:station:wmo:42044:1,2003-01-01T19:30:00Z,26.1914,-97.0507,2.0,0.404881626,33.98084755,-99999.0,'11111222,11111222,99999999' 
TABS,ioos:station:wmo:42044:1,2003-01-01T20:00:00Z,26.1914,-97.0507,2.0,0.7736092,37.78344214,-99999.0,'11111222,11111222,99999999' 
TABS,ioos:station:wmo:42044:1,2003-01-01T20:30:00Z,26.1914,-97.0507,2.0,359.6476735,37.38070759,-99999.0,'11111222,11144222,99999999' 
TABS,ioos:station:wmo:42044:1,2003-01-01T21:00:00Z,26.1914,-97.0507,2.0,3.569326103,34.69729817,-99999.0,'11111222,11111222,99999999' 
TABS,ioos:station:wmo:42044:1,2003-01-01T21:30:00Z,26.1914,-97.0507,2.0,1.38224989,28.60832222,-99999.0,'11111222,11111222,99999999' 
TABS,ioos:station:wmo:42044:1,2003-01-01T22:00:00Z,26.1914,-97.0507,2.0,1.638774765,32.87344217,-99999.0,'11111222,11111222,99999999' 
TABS,ioos:station:wmo:42044:1,2003-01-01T22:30:00Z,26.1914,-97.0507,2.0,4.855900614,33.07871823,-99999.0,'11111222,11111222,99999999' 
TABS,ioos:station:wmo:42044:1,2003-01-01T23:00:00Z,26.1914,-97.0507,2.0,5.379488848,31.14717483,-99999.0,'11111222,11111222,99999999' 
TABS,ioos:station:wmo:42044:1,2003-01-01T23:30:00Z,26.1914,-97.0507,2.0,1.30493909,28.10728731,-99999.0,'11111222,11111222,99999999' 
TABS,ioos:station:wmo:42044:1,2003-01-02T00:00:00Z,26.1914,-97.0507,2.0,357.2822733,29.31297494,-99999.0,'11111222,11111222,99999999' 
TABS,ioos:station:wmo:42044:1,2003-01-02T00:30:00Z,26.1914,-97.0507,2.0,2.980033978,25.58459302,-99999.0,'11111222,11111222,99999999' 
TABS,ioos:station:wmo:42044:1,2003-01-02T01:00:00Z,26.1914,-97.0507,2.0,2.377081056,28.93489416,-99999.0,'11111222,11111222,99999999' 
TABS,ioos:station:wmo:42044:1,2003-01-02T01:30:00Z,26.1914,-97.0507,2.0,359.1507491,30.3533359,-99999.0,'11111222,11144222,99999999' 
TABS,ioos:station:wmo:42044:1,2003-01-02T02:00:00Z,26.1914,-97.0507,2.0,359.4464555,28.97135309,-99999.0,'11111222,11144222,99999999' 
TABS,ioos:station:wmo:42044:1,2003-01-02T02:30:00Z,26.1914,-97.0507,2.0,0.549844841,26.06119913,-99999.0,'11111222,11111222,99999999' 
TABS,ioos:station:wmo:42044:1,2003-01-02T03:00:00Z,26.1914,-97.0507,2.0,8.092615078,23.65555537,-99999.0,'11111222,11111222,99999999' 
TABS,ioos:station:wmo:42044:1,2003-01-02T03:30:00Z,26.1914,-97.0507,2.0,8.728092455,23.85625285,-99999.0,'11111222,11111222,99999999' 
TABS,ioos:station:wmo:42044:1,2003-01-02T04:00:00Z,26.1914,-97.0507,2.0,2.433480659,21.66953853,-99999.0,'11111222,11111222,99999999' 
TABS,ioos:station:wmo:42044:1,2003-01-02T04:30:00Z,26.1914,-97.0507,2.0,6.01693231,23.27823232,-99999.0,'11111222,11111222,99999999' 
TABS,ioos:station:wmo:42044:1,2003-01-02T05:00:00Z,26.1914,-97.0507,2.0,13.46096981,24.87328286,-99999.0,'11111222,11111222,99999999' 
TABS,ioos:station:wmo:42044:1,2003-01-02T05:30:00Z,26.1914,-97.0507,2.0,7.858430382,23.84390908,-99999.0,'11111222,11111222,99999999' 
TABS,ioos:station:wmo:42044:1,2003-01-02T06:00:00Z,26.1914,-97.0507,2.0,0.273874075,23.0302627,-99999.0,'11111222,11111222,99999999' 
TABS,ioos:station:wmo:42044:1,2003-01-02T06:30:00Z,26.1914,-97.0507,2.0,6.716556161,20.52082844,-99999.0,'11111222,11111222,99999999' 
TABS,ioos:station:wmo:42044:1,2003-01-02T07:00:00Z,26.1914,-97.0507,2.0,12.17100761,17.36019873,-99999.0,'11111222,11111222,99999999' 
TABS,ioos:station:wmo:42044:1,2003-01-02T07:30:00Z,26.1914,-97.0507,2.0,15.53702176,14.44795141,-99999.0,'11111222,11111222,99999999' 
TABS,ioos:station:wmo:42044:1,2003-01-02T08:00:00Z,26.1914,-97.0507,2.0,10.17990084,17.20077033,-99999.0,'11111222,11111222,99999999' 
TABS,ioos:station:wmo:42044:1,2003-01-02T08:30:00Z,26.1914,-97.0507,2.0,18.27845435,12.72189058,-99999.0,'11111222,11111222,99999999' 
TABS,ioos:station:wmo:42044:1,2003-01-02T09:30:00Z,26.1914,-97.0507,2.0,8.799662926,3.26847059,-99999.0,'11133222,11111222,99999999' 
TABS,ioos:station:wmo:42044:1,2003-01-02T10:00:00Z,26.1914,-97.0507,2.0,123.8000315,4.332216523,-99999.0,'11133222,11111222,99999999' 
TABS,ioos:station:wmo:42044:1,2003-01-02T10:30:00Z,26.1914,-97.0507,2.0,136.9241926,11.58186945,-99999.0,'11111222,11111222,99999999' 
TABS,ioos:station:wmo:42044:1,2003-01-02T11:00:00Z,26.1914,-97.0507,2.0,140.3204785,9.303182251,-99999.0,'11133222,11111222,99999999' 
TABS,ioos:station:wmo:42044:1,2003-01-02T11:30:00Z,26.1914,-97.0507,2.0,154.9456719,17.63976474,-99999.0,'11111222,11111222,99999999' 
TABS,ioos:station:wmo:42044:1,2003-01-02T12:00:00Z,26.1914,-97.0507,2.0,171.9127831,24.45317362,-99999.0,'11111222,11111222,99999999' 
TABS,ioos:station:wmo:42044:1,2003-01-02T12:30:00Z,26.1914,-97.0507,2.0,168.6979647,27.80926824,-99999.0,'11111222,11111222,99999999' 
TABS,ioos:station:wmo:42044:1,2003-01-02T13:00:00Z,26.1914,-97.0507,2.0,176.1343374,30.40917789,-99999.0,'11111222,11111222,99999999' 
TABS,ioos:station:wmo:42044:1,2003-01-02T13:30:00Z,26.1914,-97.0507,2.0,173.0272771,34.02160784,-99999.0,'11111222,11111222,99999999' 
TABS,ioos:station:wmo:42044:1,2003-01-02T14:00:00Z,26.1914,-97.0507,2.0,175.8014069,36.19713386,-99999.0,'11111222,11111222,99999999' 
TABS,ioos:station:wmo:42044:1,2003-01-02T14:30:00Z,26.1914,-97.0507,2.0,182.4310678,43.13883285,-99999.0,'11111222,11111222,99999999' 
TABS,ioos:station:wmo:42044:1,2003-01-02T15:00:00Z,26.1914,-97.0507,2.0,183.2007202,40.65342544,-99999.0,'11111222,11111222,99999999' 
TABS,ioos:station:wmo:42044:1,2003-01-02T15:30:00Z,26.1914,-97.0507,2.0,182.583392,43.92464912,-99999.0,'11111222,11111222,99999999' 
TABS,ioos:station:wmo:42044:1,2003-01-02T16:00:00Z,26.1914,-97.0507,2.0,182.0954932,45.94072812,-99999.0,'11111222,11111222,99999999' 
TABS,ioos:station:wmo:42044:1,2003-01-02T16:30:00Z,26.1914,-97.0507,2.0,182.7803623,47.20557806,-99999.0,'11111222,11111222,99999999' 
TABS,ioos:station:wmo:42044:1,2003-01-02T17:00:00Z,26.1914,-97.0507,2.0,183.8611347,45.14247667,-99999.0,'11111222,11111222,99999999' 
TABS,ioos:station:wmo:42044:1,2003-01-02T17:30:00Z,26.1914,-97.0507,2.0,182.4168393,46.00092608,-99999.0,'11111222,11111222,99999999' 
TABS,ioos:station:wmo:42044:1,2003-01-02T18:00:00Z,26.1914,-97.0507,2.0,188.1240602,41.81970947,-99999.0,'11111222,11111222,99999999' 
TABS,ioos:station:wmo:42044:1,2003-01-02T18:30:00Z,26.1914,-97.0507,2.0,184.4155014,43.90031093,-99999.0,'11111222,11111222,99999999' 
TABS,ioos:station:wmo:42044:1,2003-01-02T19:00:00Z,26.1914,-97.0507,2.0,181.652668,38.13586763,-99999.0,'11111222,11111222,99999999' 
TABS,ioos:station:wmo:42044:1,2003-01-02T19:30:00Z,26.1914,-97.0507,2.0,185.5037899,37.53304677,-99999.0,'11111222,11111222,99999999' 
TABS,ioos:station:wmo:42044:1,2003-01-02T20:00:00Z,26.1914,-97.0507,2.0,180.8507883,41.74460444,-99999.0,'11111222,11111222,99999999' 
TABS,ioos:station:wmo:42044:1,2003-01-02T20:30:00Z,26.1914,-97.0507,2.0,177.6312468,37.02162881,-99999.0,'11111222,11111222,99999999' 
TABS,ioos:station:wmo:42044:1,2003-01-02T21:00:00Z,26.1914,-97.0507,2.0,179.4597582,33.95150807,-99999.0,'11111222,11111222,99999999' 
TABS,ioos:station:wmo:42044:1,2003-01-02T21:30:00Z,26.1914,-97.0507,2.0,182.2420955,32.71505005,-99999.0,'11111222,11111222,99999999' 
TABS,ioos:station:wmo:42044:1,2003-01-02T22:00:00Z,26.1914,-97.0507,2.0,188.8753023,27.6106139,-99999.0,'11111222,11111222,99999999' 
TABS,ioos:station:wmo:42044:1,2003-01-02T22:30:00Z,26.1914,-97.0507,2.0,184.1567728,27.45222213,-99999.0,'11111222,11111222,99999999' 
TABS,ioos:station:wmo:42044:1,2003-01-02T23:00:00Z,26.1914,-97.0507,2.0,181.8452191,25.46320679,-99999.0,'11111222,11111222,99999999' 
TABS,ioos:station:wmo:42044:1,2003-01-02T23:30:00Z,26.1914,-97.0507,2.0,185.2524884,24.0309155,-99999.0,'11111222,11111222,99999999' 
TABS,ioos:station:wmo:42044:1,2003-01-03T00:00:00Z,26.1914,-97.0507,2.0,189.3844299,21.83220557,-99999.0,'11111222,11111222,99999999' 
TABS,ioos:station:wmo:42044:1,2003-01-03T00:30:00Z,26.1914,-97.0507,2.0,182.1466997,21.35499005,-99999.0,'11111222,11111222,99999999' 
TABS,ioos:station:wmo:42044:1,2003-01-03T01:00:00Z,26.1914,-97.0507,2.0,187.7240562,19.56754967,-99999.0,'11111222,11111222,99999999' 
TABS,ioos:station:wmo:42044:1,2003-01-03T01:30:00Z,26.1914,-97.0507,2.0,180.7519152,17.52150964,-99999.0,'11111222,11111222,99999999' 
TABS,ioos:station:wmo:42044:1,2003-01-03T02:00:00Z,26.1914,-97.0507,2.0,178.2460513,17.31811191,-99999.0,'11111222,11111222,99999999' 
TABS,ioos:station:wmo:42044:1,2003-01-03T02:30:00Z,26.1914,-97.0507,2.0,185.7540337,14.36237097,-99999.0,'11111222,11111222,99999999' 
TABS,ioos:station:wmo:42044:1,2003-01-03T03:00:00Z,26.1914,-97.0507,2.0,186.5637155,12.15970806,-99999.0,'11111222,11111222,99999999' 
TABS,ioos:station:wmo:42044:1,2003-01-03T03:30:00Z,26.1914,-97.0507,2.0,196.6899625,12.15194223,-99999.0,'11111222,11111222,99999999' 
TABS,ioos:station:wmo:42044:1,2003-01-03T04:00:00Z,26.1914,-97.0507,2.0,192.8346582,9.948572762,-99999.0,'11133222,11111222,99999999' 
TABS,ioos:station:wmo:42044:1,2003-01-03T04:30:00Z,26.1914,-97.0507,2.0,211.4133396,8.518597302,-99999.0,'11133222,11111222,99999999' 
TABS,ioos:station:wmo:42044:1,2003-01-03T05:00:00Z,26.1914,-97.0507,2.0,200.0851759,6.69732036,-99999.0,'11133222,11111222,99999999' 
TABS,ioos:station:wmo:42044:1,2003-01-03T05:30:00Z,26.1914,-97.0507,2.0,191.2112834,5.708949115,-99999.0,'11133222,11111222,99999999' 
TABS,ioos:station:wmo:42044:1,2003-01-03T06:00:00Z,26.1914,-97.0507,2.0,215.020486,4.896549806,-99999.0,'11133222,11111222,99999999' 
TABS,ioos:station:wmo:42044:1,2003-01-03T06:30:00Z,26.1914,-97.0507,2.0,212.614744,4.582630249,-99999.0,'11133222,11111222,99999999' 
TABS,ioos:station:wmo:42044:1,2003-01-03T07:00:00Z,26.1914,-97.0507,2.0,201.931011,4.096449682,-99999.0,'11133222,11111222,99999999' 
TABS,ioos:station:wmo:42044:1,2003-01-03T07:30:00Z,26.1914,-97.0507,2.0,199.1295367,2.868396765,-99999.0,'11133222,11111222,99999999' 
TABS,ioos:station:wmo:42044:1,2003-01-03T08:00:00Z,26.1914,-97.0507,2.0,185.3225278,1.61697248,-99999.0,'11133222,11111222,99999999' 
TABS,ioos:station:wmo:42044:1,2003-01-03T08:30:00Z,26.1914,-97.0507,2.0,286.7736323,3.707748643,-99999.0,'11133222,11111222,99999999' 
TABS,ioos:station:wmo:42044:1,2003-01-03T09:00:00Z,26.1914,-97.0507,2.0,312.2448974,1.323820229,-99999.0,'11133222,11111222,99999999' 
TABS,ioos:station:wmo:42044:1,2003-01-03T09:30:00Z,26.1914,-97.0507,2.0,300.2116727,0.914166287,-99999.0,'11133222,11111222,99999999' 
TABS,ioos:station:wmo:42044:1,2003-01-03T10:00:00Z,26.1914,-97.0507,2.0,13.24069941,0.698569968,-99999.0,'11133222,11111222,99999999' 
TABS,ioos:station:wmo:42044:1,2003-01-03T10:30:00Z,26.1914,-97.0507,2.0,8.642992828,2.528715089,-99999.0,'11133222,11111222,99999999' 
TABS,ioos:station:wmo:42044:1,2003-01-03T11:00:00Z,26.1914,-97.0507,2.0,332.0650856,3.927658335,-99999.0,'11133222,11111222,99999999' 
TABS,ioos:station:wmo:42044:1,2003-01-03T11:30:00Z,26.1914,-97.0507,2.0,0.000210459,4.96,-99999.0,'11133222,11111222,99999999' 
TABS,ioos:station:wmo:42044:1,2003-01-03T12:00:00Z,26.1914,-97.0507,2.0,359.5115601,4.690170573,-99999.0,'11133222,11144222,99999999' 
TABS,ioos:station:wmo:42044:1,2003-01-03T12:30:00Z,26.1914,-97.0507,2.0,5.943334514,3.187130371,-99999.0,'11133222,11111222,99999999' 
TABS,ioos:station:wmo:42044:1,2003-01-03T13:00:00Z,26.1914,-97.0507,2.0,345.3884465,5.311798189,-99999.0,'11133222,11111222,99999999' 
TABS,ioos:station:wmo:42044:1,2003-01-03T13:30:00Z,26.1914,-97.0507,2.0,354.1396886,6.463783722,-99999.0,'11133222,11111222,99999999' 
TABS,ioos:station:wmo:42044:1,2003-01-03T14:00:00Z,26.1914,-97.0507,2.0,359.636818,9.460190273,-99999.0,'11133222,11144222,99999999' 
TABS,ioos:station:wmo:42044:1,2003-01-03T14:30:00Z,26.1914,-97.0507,2.0,358.4153598,7.592904583,-99999.0,'11133222,11111222,99999999' 
TABS,ioos:station:wmo:42044:1,2003-01-03T15:00:00Z,26.1914,-97.0507,2.0,354.5657373,9.291765171,-99999.0,'11133222,11111222,99999999' 
TABS,ioos:station:wmo:42044:1,2003-01-03T15:30:00Z,26.1914,-97.0507,2.0,351.5811417,10.65482051,-99999.0,'11111222,11111222,99999999' 
TABS,ioos:station:wmo:42044:1,2003-01-03T16:00:00Z,26.1914,-97.0507,2.0,350.4302487,9.623933707,-99999.0,'11133222,11111222,99999999' 
TABS,ioos:station:wmo:42044:1,2003-01-03T16:30:00Z,26.1914,-97.0507,2.0,354.4607448,12.32757073,-99999.0,'11111222,11111222,99999999' 
TABS,ioos:station:wmo:42044:1,2003-01-03T17:00:00Z,26.1914,-97.0507,2.0,346.6730368,10.97557743,-99999.0,'11111222,11111222,99999999' 
TABS,ioos:station:wmo:42044:1,2003-01-03T17:30:00Z,26.1914,-97.0507,2.0,344.4578154,11.71851953,-99999.0,'11111222,11111222,99999999' 
TABS,ioos:station:wmo:42044:1,2003-01-03T18:00:00Z,26.1914,-97.0507,2.0,335.7526535,11.83400608,-99999.0,'11111222,11111222,99999999' 
TABS,ioos:station:wmo:42044:1,2003-01-03T18:30:00Z,26.1914,-97.0507,2.0,333.1040364,12.37907913,-99999.0,'11111222,11111222,99999999' 
TABS,ioos:station:wmo:42044:1,2003-01-03T19:00:00Z,26.1914,-97.0507,2.0,336.9876069,13.35262147,-99999.0,'11111222,11111222,99999999' 
TABS,ioos:station:wmo:42044:1,2003-01-03T19:30:00Z,26.1914,-97.0507,2.0,339.5550059,12.71069235,-99999.0,'11111222,11111222,99999999' 
TABS,ioos:station:wmo:42044:1,2003-01-03T20:00:00Z,26.1914,-97.0507,2.0,340.5241207,14.96636897,-99999.0,'11111222,11111222,99999999' 
TABS,ioos:station:wmo:42044:1,2003-01-03T20:30:00Z,26.1914,-97.0507,2.0,345.9071307,14.66128576,-99999.0,'11111222,11111222,99999999' 
TABS,ioos:station:wmo:42044:1,2003-01-03T21:00:00Z,26.1914,-97.0507,2.0,338.8782151,13.62542476,-99999.0,'11111222,11111222,99999999' 
TABS,ioos:station:wmo:42044:1,2003-01-03T21:30:00Z,26.1914,-97.0507,2.0,339.5062311,15.13811085,-99999.0,'11111222,11111222,99999999' 
TABS,ioos:station:wmo:42044:1,2003-01-03T22:00:00Z,26.1914,-97.0507,2.0,331.354616,14.28895028,-99999.0,'11111222,11111222,99999999' 
TABS,ioos:station:wmo:42044:1,2003-01-03T22:30:00Z,26.1914,-97.0507,2.0,334.7018945,12.54293427,-99999.0,'11111222,11111222,99999999' 
TABS,ioos:station:wmo:42044:1,2003-01-03T23:00:00Z,26.1914,-97.0507,2.0,336.3264842,13.29917291,-99999.0,'11111222,11111222,99999999' 
TABS,ioos:station:wmo:42044:1,2003-01-03T23:30:00Z,26.1914,-97.0507,2.0,347.3622044,16.4997606,-99999.0,'11111222,11111222,99999999' 
TABS,ioos:station:wmo:42044:1,2003-01-04T00:00:00Z,26.1914,-97.0507,2.0,343.0839896,16.94311069,-99999.0,'11111222,11111222,99999999' 
TABS,ioos:station:wmo:42044:1,2003-01-04T00:30:00Z,26.1914,-97.0507,2.0,351.0363616,17.00771884,-99999.0,'11111222,11111222,99999999' 
TABS,ioos:station:wmo:42044:1,2003-01-04T01:00:00Z,26.1914,-97.0507,2.0,351.5622163,17.10516004,-99999.0,'11111222,11111222,99999999' 
TABS,ioos:station:wmo:42044:1,2003-01-04T01:30:00Z,26.1914,-97.0507,2.0,355.6115532,17.51134489,-99999.0,'11111222,11111222,99999999' 
TABS,ioos:station:wmo:42044:1,2003-01-04T02:00:00Z,26.1914,-97.0507,2.0,353.1949971,20.00091248,-99999.0,'11111222,11111222,99999999' 
TABS,ioos:station:wmo:42044:1,2003-01-04T02:30:00Z,26.1914,-97.0507,2.0,352.8314645,17.86968942,-99999.0,'11111222,11111222,99999999' 
TABS,ioos:station:wmo:42044:1,2003-01-04T03:00:00Z,26.1914,-97.0507,2.0,353.0197748,19.17210995,-99999.0,'11111222,11111222,99999999' 
TABS,ioos:station:wmo:42044:1,2003-01-04T03:30:00Z,26.1914,-97.0507,2.0,358.6819241,19.12506209,-99999.0,'11111222,11111222,99999999' 
TABS,ioos:station:wmo:42044:1,2003-01-04T04:00:00Z,26.1914,-97.0507,2.0,356.1504389,19.21335473,-99999.0,'11111222,11111222,99999999' 
TABS,ioos:station:wmo:42044:1,2003-01-04T04:30:00Z,26.1914,-97.0507,2.0,356.8701989,19.77950707,-99999.0,'11111222,11111222,99999999' 
TABS,ioos:station:wmo:42044:1,2003-01-04T05:00:00Z,26.1914,-97.0507,2.0,350.1611961,16.50272705,-99999.0,'11111222,11111222,99999999' 
TABS,ioos:station:wmo:42044:1,2003-01-04T05:30:00Z,26.1914,-97.0507,2.0,355.0677861,16.63159042,-99999.0,'11111222,11111222,99999999' 
TABS,ioos:station:wmo:42044:1,2003-01-04T06:00:00Z,26.1914,-97.0507,2.0,354.083605,16.87992002,-99999.0,'11111222,11111222,99999999' 
TABS,ioos:station:wmo:42044:1,2003-01-04T06:30:00Z,26.1914,-97.0507,2.0,0.722650157,18.24145005,-99999.0,'11111222,11111222,99999999' 
TABS,ioos:station:wmo:42044:1,2003-01-04T07:00:00Z,26.1914,-97.0507,2.0,0.80896032,17.71176445,-99999.0,'11111222,11111222,99999999' 
TABS,ioos:station:wmo:42044:1,2003-01-04T07:30:00Z,26.1914,-97.0507,2.0,4.224025279,16.83572689,-99999.0,'11111222,11111222,99999999' 
TABS,ioos:station:wmo:42044:1,2003-01-04T08:00:00Z,26.1914,-97.0507,2.0,0.197644707,14.51008615,-99999.0,'11111222,11111222,99999999' 
TABS,ioos:station:wmo:42044:1,2003-01-04T08:30:00Z,26.1914,-97.0507,2.0,1.10647164,14.5027032,-99999.0,'11111222,11111222,99999999' 
TABS,ioos:station:wmo:42044:1,2003-01-04T09:00:00Z,26.1914,-97.0507,2.0,359.573594,13.4303723,-99999.0,'11111222,11144222,99999999' 
TABS,ioos:station:wmo:42044:1,2003-01-04T09:30:00Z,26.1914,-97.0507,2.0,11.84910897,11.88320243,-99999.0,'11111222,11111222,99999999' 
TABS,ioos:station:wmo:42044:1,2003-01-04T10:00:00Z,26.1914,-97.0507,2.0,3.858881772,13.67099119,-99999.0,'11111222,11111222,99999999' 
TABS,ioos:station:wmo:42044:1,2003-01-04T10:30:00Z,26.1914,-97.0507,2.0,13.69140934,12.08334391,-99999.0,'11111222,11111222,99999999' 
TABS,ioos:station:wmo:42044:1,2003-01-04T11:00:00Z,26.1914,-97.0507,2.0,12.62492755,12.30756678,-99999.0,'11111222,11111222,99999999' 
TABS,ioos:station:wmo:42044:1,2003-01-04T11:30:00Z,26.1914,-97.0507,2.0,358.8769104,10.71205863,-99999.0,'11111222,11111222,99999999' 
TABS,ioos:station:wmo:42044:1,2003-01-04T12:00:00Z,26.1914,-97.0507,2.0,12.09849313,11.26009325,-99999.0,'11111222,11111222,99999999' 
TABS,ioos:station:wmo:42044:1,2003-01-04T12:30:00Z,26.1914,-97.0507,2.0,14.86007837,8.773420086,-99999.0,'11133222,11111222,99999999' 
TABS,ioos:station:wmo:42044:1,2003-01-04T13:00:00Z,26.1914,-97.0507,2.0,13.68631923,9.129211357,-99999.0,'11133222,11111222,99999999' 
TABS,ioos:station:wmo:42044:1,2003-01-04T13:30:00Z,26.1914,-97.0507,2.0,4.665451332,7.254033361,-99999.0,'11133222,11111222,99999999' 
TABS,ioos:station:wmo:42044:1,2003-01-04T14:00:00Z,26.1914,-97.0507,2.0,15.69446553,7.208751626,-99999.0,'11133222,11111222,99999999' 
TABS,ioos:station:wmo:42044:1,2003-01-04T14:30:00Z,26.1914,-97.0507,2.0,16.91303657,4.881116676,-99999.0,'11133222,11111222,99999999' 
TABS,ioos:station:wmo:42044:1,2003-01-04T15:00:00Z,26.1914,-97.0507,2.0,5.515109154,5.826971769,-99999.0,'11133222,11111222,99999999' 
TABS,ioos:station:wmo:42044:1,2003-01-04T15:30:00Z,26.1914,-97.0507,2.0,358.3636372,4.201713936,-99999.0,'11133222,11111222,99999999' 
TABS,ioos:station:wmo:42044:1,2003-01-04T16:00:00Z,26.1914,-97.0507,2.0,350.1344266,3.73523761,-99999.0,'11133222,11111222,99999999' 
TABS,ioos:station:wmo:42044:1,2003-01-04T16:30:00Z,26.1914,-97.0507,2.0,5.264851999,6.648044825,-99999.0,'11133222,11111222,99999999' 